QPF
0.00 0.00 0.00 0.00 0.00 0.00 0.01 0.08 0.12 0.38 1.18 0.56 0.20 0.04 0.02 0.00 0.00 0.00 0.00 0.00 0.00 0.00 0.00 0.01 0.00 0.00 0.00 0.00 0.00 0.00 0.00 0.00 0.00 0.00 0.00 0.00 0.00 0.00 0.00 0.00 0.01 0.01 0.00 0.00
0.00 0.00 0.00 0.00 0.01 0.00 0.00 0.00 0.06 0.25 0.49 0.37 0.43 0.25 0.04 0.01 0.00 0.00 0.00 0.00 0.00 0.00 0.00 0.00 0.00 0.00 0.00 0.00 0.00 0.00 0.00 0.00 0.00 0.00 0.00 0.00 0.00 0.00 0.00 0.00 0.02 0.02 0.01 0.01
0.00 0.00 0.00 0.00 0.01 0.01 0.00 0.00 0.00 0.02 0.04 0.03 0.13 0.25 0.07 0.03 0.03 0.01 0.00 0.00 0.00 0.00 0.00 0.00 0.00 0.01 0.00 0.00 0.00 0.00 0.00 0.00 0.00 0.00 0.00 0.00 0.00 0.00 0.00 0.01 0.04 0.03 0.01 0.00
0.00 0.00 0.00 0.00 0.01 0.00 0.00 0.00 0.00 0.03 0.03 0.01 0.03 0.03 0.04 0.01 0.02 0.02 0.00 0.00 0.00 0.00 0.00 0.00 0.00 0.00 0.00 0.00 0.03 0.00 0.00 0.00 0.00 0.00 0.00 0.00 0.02 0.02 0.02 0.01 0.00 0.01 0.00 0.00
0.00 0.00 0.00 0.00 0.00 0.00 0.00 0.00 0.01 0.01 0.00 0.00 0.00 0.00 0.01 0.00 0.00 0.00 0.00 0.00 0.01 0.00 0.00 0.00 0.00 0.00 0.00 0.00 0.00 0.00 0.00 0.00 0.00 0.00 0.00 0.00 0.00 0.00 0.00 0.00 0.00 0.00 0.00 0.00
0.00 0.00 0.00 0.00 0.00 0.00 0.00 0.01 0.01 0.01 0.00 0.00 0.00 0.00 0.00 0.00 0.00 0.00 0.00 0.05 0.03 0.00 0.01 0.00 0.00 0.00 0.00 0.00 0.00 0.00 0.00 0.00 0.00 0.00 0.00 0.00 0.00 0.00 0.00 0.00 0.00 0.00 0.00 0.00
0.00 0.00 0.00 0.00 0.00 0.02 0.00 0.00 0.01 0.01 0.00 0.00 0.00 0.00 0.00 0.00 0.00 0.00 0.00 0.04 0.04 0.08 0.04 0.00 0.00 0.00 0.00 0.00 0.00 0.00 0.00 0.00 0.00 0.00 0.00 0.00 0.02 0.00 0.00 0.00 0.00 0.00 0.00 0.00
0.00 0.00 0.00 0.00 0.00 0.01 0.00 0.00 0.00 0.00 0.00 0.00 0.00 0.00 0.00 0.00 0.00 0.00 0.00 0.00 0.02 0.02 0.05 0.01 0.00 0.00 0.01 0.00 0.00 0.00 0.00 0.00 0.00 0.00 0.00 0.00 0.02 0.01 0.01 0.01 0.00 0.00 0.00 0.00
0.00 0.00 0.00 0.00 0.00 0.00 0.00 0.00 0.00 0.00 0.00 0.00 0.00 0.01 0.00 0.00 0.00 0.00 0.00 0.00 0.00 0.00 0.00 0.00 0.01 0.00 0.00 0.00 0.00 0.00 0.00 0.00 0.00 0.00 0.00 0.00 0.00 0.00 0.03 0.01 0.00 0.00 0.00 0.00
0.00 0.00 0.00 0.00 0.00 0.00 0.00 0.00 0.00 0.00 0.00 0.00 0.01 0.02 0.02 0.00 0.00 0.00 0.00 0.00 0.00 0.00 0.00 0.00 0.01 0.00 0.00 0.00 0.00 0.00 0.00 0.00 0.00 0.00 0.00 0.00 0.00 0.00 0.01 0.02 0.00 0.01 0.01 0.00
0.00 0.00 0.00 0.00 0.00 0.00 0.00 0.00 0.00 0.00 0.00 0.00 0.01 0.01 0.00 0.00 0.00 0.00 0.00 0.00 0.00 0.00 0.00 0.00 0.00 0.00 0.00 0.00 0.00 0.00 0.00 0.00 0.00 0.00 0.00 0.00 0.00 0.04 0.00 0.03 0.03 0.06 0.02 0.01
0.00 0.00 0.00 0.00 0.00 0.00 0.00 0.00 0.00 0.00 0.00 0.00 0.00 0.00 0.00 0.00 0.00 0.00 0.00 0.00 0.00 0.00 0.00 0.00 0.00 0.00 0.00 0.00 0.00 0.00 0.00 0.00 0.00 0.00 0.00 0.00 0.04 0.07 0.07 0.14 0.09 0.07 0.04 0.03
0.00 0.00 0.00 0.00 0.00 0.00 0.00 0.00 0.00 0.00 0.00 0.00 0.00 0.00 0.00 0.00 0.00 0.00 0.00 0.00 0.00 0.00 0.00 0.00 0.00 0.00 0.00 0.00 0.00 0.00 0.00 0.00 0.02 0.02 0.00 0.00 0.00 0.00 0.01 0.06 0.17 0.10 0.09 0.01
0.00 0.00 0.00 0.00 0.01 0.00 0.00 0.00 0.00 0.00 0.00 0.00 0.00 0.00 0.00 0.00 0.00 0.00 0.00 0.00 0.00 0.00 0.00 0.00 0.01 0.00 0.00 0.00 0.00 0.00 0.05 0.13 0.10 0.04 0.03 0.01 0.00 0.00 0.00 0.01 0.04 0.02 0.04 0.00
0.00 0.00 0.00 0.00 0.01 0.01 0.00 0.00 0.00 0.00 0.00 0.00 0.00 0.00 0.00 0.00 0.00 0.00 0.00 0.00 0.00 0.00 0.00 0.00 0.02 0.05 0.04 0.01 0.01 0.00 0.04 0.09 0.10 0.03 0.03 0.07 0.02 0.00 0.02 0.03 0.05 0.09 0.06 0.05
0.00 0.00 0.00 0.00 0.00 0.01 0.00 0.00 0.00 0.00 0.00 0.00 0.00 0.00 0.00 0.00 0.00 0.00 0.00 0.00 0.00 0.00 0.00 0.00 0.01 0.09 0.08 0.06 0.10 0.11 0.11 0.10 0.09 0.08 0.09 0.08 0.07 0.07 0.04 0.04 0.03 0.03 0.05 0.11
0.00 0.00 0.00 0.00 0.00 0.00 0.00 0.00 0.00 0.00 0.00 0.01 0.02 0.00 0.00 0.00 0.00 0.00 0.00 0.00 0.00 0.00 0.00 0.03 0.02 0.06 0.13 0.19 0.16 0.13 0.10 0.05 0.01 0.00 0.01 0.03 0.02 0.03 0.06 0.12 0.11 0.08 0.11 0.08
0.00 0.00 0.00 0.00 0.00 0.00 0.00 0.01 0.00 0.00 0.00 0.00 0.00 0.00 0.00 0.00 0.01 0.00 0.00 0.00 0.00 0.00 0.00 0.05 0.41 0.20 0.19 0.27 0.28 0.21 0.13 0.07 0.03 0.01 0.02 0.02 0.12 0.05 0.08 0.17 0.22 0.31 0.39 0.41
0.00 0.00 0.00 0.00 0.00 0.00 0.00 0.00 0.00 0.00 0.01 0.00 0.01 0.01 0.02 0.04 0.03 0.01 0.01 0.00 0.00 0.00 0.00 0.00 0.30 0.46 0.73 0.95 1.03 0.59 0.30 0.15 0.12 0.11 0.06 0.10 0.37 0.24 0.10 0.05 0.05 0.09 0.19 0.25
0.00 0.00 0.00 0.00 0.00 0.00 0.00 0.00 0.00 0.00 0.00 0.00 0.01 0.01 0.01 0.01 0.00 0.00 0.01 0.00 0.01 0.01 0.01 0.00 0.02 0.05 0.04 0.25 0.52 0.38 0.37 0.27 0.20 0.19 0.09 0.05 0.09 0.12 0.08 0.05 0.08 0.08 0.08 0.09
0.00 0.00 0.00 0.00 0.00 0.00 0.00 0.00 0.00 0.00 0.00 0.02 0.02 0.02 0.01 0.00 0.00 0.00 0.00 0.00 0.01 0.01 0.01 0.01 0.01 0.02 0.01 0.02 0.04 0.05 0.11 0.09 0.07 0.04 0.02 0.01 0.01 0.02 0.02 0.01 0.01 0.02 0.02 0.01
0.00 0.00 0.00 0.00 0.00 0.00 0.00 0.00 0.00 0.00 0.00 0.01 0.01 0.01 0.00 0.00 0.00 0.00 0.00 0.00 0.00 0.00 0.01 0.02 0.02 0.01 0.01 0.00 0.00 0.00 0.00 0.02 0.02 0.01 0.00 0.00 0.00 0.00 0.00 0.00 0.00 0.00 0.00 0.00
0.00 0.00 0.00 0.00 0.00 0.00 0.00 0.00 0.00 0.00 0.00 0.01 0.00 0.00 0.00 0.00 0.00 0.00 0.00 0.00 0.00 0.00 0.00 0.01 0.01 0.01 0.00 0.01 0.00 0.00 0.00 0.00 0.00 0.00 0.00 0.00 0.00 0.00 0.00 0.00 0.00 0.00 0.00 0.00
0.00 0.00 0.00 0.00 0.00 0.00 0.00 0.00 0.00 0.00 0.00 0.00 0.01 0.00 0.00 0.00 0.00 0.00 0.00 0.00 0.00 0.00 0.00 0.00 0.00 0.00 0.00 0.00 0.00 0.00 0.00 0.00 0.00 0.00 0.00 0.00 0.00 0.00 0.00 0.00 0.00 0.00 0.00 0.00
0.00 0.00 0.00 0.00 0.00 0.00 0.00 0.00 0.00 0.00 0.00 0.00 0.01 0.00 0.00 0.00 0.00 0.00 0.00 0.00 0.00 0.00 0.00 0.00 0.00 0.00 0.00 0.00 0.00 0.00 0.00 0.00 0.00 0.00 0.00 0.00 0.00 0.00 0.00 0.00 0.00 0.00 0.00 0.00
0.00 0.00 0.00 0.00 0.00 0.00 0.00 0.00 0.00 0.02 0.02 0.02 0.00 0.02 0.01 0.00 0.00 0.00 0.00 0.00 0.00 0.00 0.00 0.00 0.00 0.00 0.00 0.00 0.00 0.00 0.00 0.00 0.00 0.00 0.00 0.00 0.00 0.00 0.00 0.00 0.00 0.00 0.00 0.00
MSLP
1009.62 1010.25 1010.17 1009.61 1010.36 1010.60 1011.20 1012.00 1012.81 1013.14 1013.67 1013.71 1013.23 1012.86 1012.71 1012.67 1012.55 1012.77 1013.13 1013.30 1013.81 1014.08 1014.42 1015.11 1015.67 1016.13 1016.52 1016.98 1017.31 1017.39 1017.74 1018.07 1018.37 1018.70 1019.00 1019.47 1019.74 1019.87 1020.00 1020.01 1020.00 1020.09 1020.20 1020.10
1009.97 1009.96 1009.29 1009.49 1009.74 1009.94 1010.23 1011.04 1012.04 1013.44 1013.51 1013.39 1013.34 1013.26 1013.16 1012.90 1012.69 1012.46 1012.79 1013.25 1013.66 1014.41 1014.71 1015.28 1015.81 1016.15 1016.57 1016.97 1017.17 1017.52 1017.64 1018.11 1018.31 1018.57 1018.76 1018.98 1019.46 1019.81 1019.85 1020.02 1020.05 1020.31 1020.24 1020.09
1009.75 1009.24 1008.82 1009.13 1009.32 1009.48 1009.69 1010.30 1011.17 1012.02 1013.46 1013.90 1013.61 1014.01 1013.67 1013.56 1013.33 1013.00 1012.89 1013.06 1013.64 1014.18 1014.67 1015.25 1015.72 1016.14 1016.54 1016.98 1017.10 1017.24 1017.58 1017.75 1018.33 1018.57 1018.73 1019.19 1019.40 1019.80 1020.12 1020.22 1020.30 1020.29 1020.21 1020.33
1009.33 1008.69 1008.59 1008.76 1008.87 1009.44 1009.74 1009.65 1010.72 1011.98 1013.07 1013.85 1013.86 1014.06 1013.62 1013.63 1013.54 1013.12 1012.87 1013.17 1013.69 1014.09 1014.73 1015.00 1015.55 1016.07 1016.35 1016.74 1017.15 1017.35 1017.60 1017.74 1018.06 1018.19 1018.59 1019.11 1019.45 1019.95 1020.05 1020.02 1020.13 1020.21 1020.16 1020.30
1008.92 1008.41 1008.19 1008.23 1007.98 1008.85 1009.92 1010.24 1010.98 1012.21 1013.60 1013.94 1013.85 1013.70 1012.58 1012.62 1012.50 1012.30 1012.79 1012.88 1013.52 1013.78 1014.11 1014.70 1015.06 1015.33 1015.95 1016.61 1016.80 1017.25 1017.59 1017.98 1017.98 1018.34 1018.63 1019.13 1019.56 1019.71 1019.82 1020.02 1020.32 1020.33 1020.20 1020.26
1008.37 1007.55 1007.54 1007.20 1007.52 1008.17 1009.82 1011.36 1011.99 1012.94 1013.76 1014.02 1013.39 1013.47 1012.25 1011.81 1010.66 1011.56 1012.14 1012.53 1013.34 1013.86 1014.12 1014.54 1014.97 1015.41 1015.70 1016.34 1016.77 1017.21 1017.64 1018.06 1018.18 1018.25 1018.55 1018.99 1019.45 1019.76 1020.01 1020.14 1020.19 1020.22 1020.23 1020.21
1007.88 1007.01 1006.32 1006.42 1007.82 1008.89 1009.23 1011.00 1012.54 1013.65 1013.68 1013.92 1013.36 1013.26 1011.01 1010.02 1009.73 1009.63 1010.81 1012.03 1013.00 1013.77 1014.03 1014.35 1014.85 1015.33 1015.76 1016.14 1016.57 1017.13 1017.65 1018.01 1018.21 1018.36 1018.59 1018.97 1019.20 1019.45 1019.78 1019.96 1019.94 1020.09 1020.16 1020.18
1008.13 1006.96 1005.95 1005.82 1006.69 1008.19 1009.20 1009.67 1011.51 1013.10 1013.57 1013.44 1013.24 1012.24 1010.03 1009.30 1009.08 1008.95 1009.59 1010.63 1012.22 1013.55 1013.97 1014.11 1014.44 1014.82 1015.36 1015.73 1016.33 1016.82 1017.44 1017.82 1018.00 1018.24 1018.32 1018.63 1019.09 1019.45 1019.63 1019.61 1019.67 1019.84 1019.78 1019.72
1008.02 1007.07 1005.81 1005.36 1006.00 1007.26 1008.53 1009.41 1010.01 1012.51 1012.85 1013.15 1012.69 1011.16 1009.19 1008.75 1008.63 1008.26 1009.23 1010.44 1011.27 1011.93 1012.88 1013.24 1013.90 1014.41 1014.81 1015.32 1015.79 1016.30 1016.89 1017.42 1017.75 1017.98 1018.32 1018.53 1018.81 1019.08 1019.27 1019.32 1019.51 1019.43 1019.43 1019.42
1007.83 1007.56 1006.43 1006.08 1006.01 1007.03 1007.14 1008.41 1010.44 1012.87 1012.93 1012.63 1012.48 1011.32 1009.55 1008.96 1009.57 1009.78 1010.39 1010.12 1010.19 1010.65 1011.61 1012.58 1013.01 1013.87 1014.39 1014.75 1015.21 1015.77 1016.27 1016.65 1017.10 1017.52 1018.01 1018.36 1018.64 1018.87 1018.94 1019.21 1019.29 1019.30 1019.19 1018.99
1007.73 1008.24 1007.54 1006.77 1007.02 1007.07 1007.67 1008.14 1009.47 1010.96 1011.86 1012.05 1012.34 1011.56 1009.92 1009.76 1009.51 1010.33 1010.88 1011.18 1011.24 1011.44 1011.87 1011.87 1012.41 1012.96 1013.18 1014.31 1014.78 1015.27 1015.81 1016.25 1016.83 1017.25 1017.65 1018.08 1018.40 1018.67 1018.75 1018.85 1018.96 1018.95 1018.83 1018.85
1007.89 1008.51 1008.71 1008.27 1007.83 1007.53 1007.75 1008.74 1009.56 1011.03 1012.14 1012.14 1012.04 1011.46 1010.75 1010.74 1010.49 1010.62 1011.10 1011.04 1011.05 1011.16 1011.60 1012.29 1012.74 1013.13 1013.54 1013.82 1014.40 1014.62 1015.37 1015.84 1016.33 1016.79 1017.41 1017.77 1018.10 1018.40 1018.59 1018.67 1018.77 1018.78 1018.83 1018.51
1007.87 1008.92 1009.38 1009.11 1008.90 1008.22 1008.89 1009.18 1009.56 1010.56 1011.49 1012.27 1012.53 1011.96 1011.65 1011.38 1011.42 1011.57 1011.53 1011.22 1010.93 1010.83 1011.23 1011.97 1012.73 1013.16 1013.58 1013.92 1014.35 1014.73 1015.24 1015.63 1016.10 1016.52 1017.09 1017.55 1017.93 1018.26 1018.35 1018.34 1018.48 1018.54 1018.72 1018.57
1008.07 1009.75 1010.13 1010.44 1010.72 1010.70 1009.97 1009.76 1009.81 1010.27 1011.65 1012.34 1012.39 1012.02 1012.37 1012.61 1012.57 1012.69 1012.19 1011.91 1011.68 1011.09 1010.65 1011.32 1012.33 1013.03 1013.30 1013.61 1014.17 1014.55 1015.04 1015.31 1015.82 1016.28 1016.85 1017.24 1017.60 1017.91 1018.18 1018.18 1018.29 1018.50 1018.47 1018.59
1008.97 1010.28 1010.55 1010.78 1010.75 1010.86 1010.52 1010.39 1010.16 1010.41 1011.22 1011.86 1012.16 1012.72 1013.07 1013.49 1013.27 1013.13 1012.89 1012.34 1012.06 1012.09 1012.16 1012.34 1012.40 1012.70 1013.30 1013.83 1014.31 1014.66 1014.99 1015.37 1015.73 1016.45 1017.08 1017.59 1017.63 1017.70 1017.89 1018.09 1018.07 1018.11 1018.48 1018.55
1010.12 1011.02 1011.27 1011.63 1011.43 1010.79 1011.11 1011.13 1010.78 1011.07 1011.42 1012.27 1012.71 1013.39 1013.79 1013.90 1013.77 1013.80 1013.77 1013.47 1013.06 1012.93 1013.01 1013.13 1013.49 1013.97 1014.76 1015.08 1015.60 1015.47 1015.72 1016.04 1016.59 1016.96 1017.04 1017.52 1017.51 1017.56 1017.88 1017.76 1017.97 1018.11 1018.31 1018.49
1011.10 1011.62 1012.12 1012.14 1012.40 1011.31 1011.78 1012.41 1011.92 1011.98 1012.02 1012.52 1013.47 1013.98 1014.07 1014.42 1014.54 1014.66 1014.58 1014.34 1014.26 1013.99 1014.00 1013.81 1013.82 1014.07 1014.69 1015.36 1015.96 1016.22 1016.40 1016.32 1016.74 1017.01 1017.39 1017.34 1017.85 1017.63 1017.80 1017.80 1018.00 1018.28 1018.60 1018.81
1011.95 1012.57 1013.03 1013.19 1012.77 1012.80 1012.70 1012.77 1012.43 1012.48 1012.87 1012.84 1013.55 1013.84 1014.28 1014.82 1015.36 1015.54 1015.45 1015.35 1015.17 1015.14 1015.07 1014.64 1014.32 1014.18 1014.32 1015.52 1016.16 1016.48 1016.82 1016.68 1016.97 1017.15 1017.49 1017.35 1017.58 1017.68 1017.78 1017.78 1018.05 1018.15 1018.60 1019.26
1012.13 1013.24 1014.15 1014.39 1014.38 1014.03 1013.28 1012.81 1012.83 1012.77 1013.56 1013.47 1013.71 1014.09 1014.68 1015.22 1015.75 1016.13 1016.47 1016.53 1016.39 1016.02 1015.69 1015.33 1015.02 1014.88 1014.42 1014.80 1015.84 1016.43 1016.75 1017.29 1017.37 1017.66 1017.58 1017.26 1016.73 1017.32 1017.37 1017.89 1017.87 1018.06 1018.79 1019.45
1013.10 1013.33 1014.24 1015.27 1015.23 1014.83 1014.00 1013.18 1012.97 1012.82 1013.81 1013.84 1013.90 1014.61 1014.84 1015.54 1016.35 1017.19 1017.31 1017.39 1017.30 1016.98 1016.57 1016.25 1015.84 1015.50 1015.39 1015.92 1015.31 1016.70 1016.63 1016.23 1017.10 1017.63 1017.74 1017.57 1017.36 1017.79 1017.85 1018.41 1018.73 1019.32 1019.67 1020.12
1014.82 1015.30 1015.82 1016.13 1015.96 1015.11 1014.02 1013.50 1013.08 1013.78 1014.42 1013.79 1013.78 1014.43 1015.20 1016.10 1016.81 1017.35 1017.78 1018.11 1018.14 1018.02 1017.77 1017.65 1017.25 1016.95 1017.21 1017.20 1017.19 1017.55 1017.49 1017.66 1018.02 1017.82 1017.77 1017.79 1018.49 1018.82 1019.25 1019.78 1019.92 1019.98 1020.12 1020.46
1015.79 1016.41 1016.84 1017.02 1016.66 1015.56 1014.46 1014.12 1014.11 1014.26 1014.08 1014.03 1014.34 1014.74 1015.70 1016.56 1017.31 1018.06 1018.29 1018.59 1018.87 1018.75 1018.64 1018.43 1018.28 1018.33 1018.27 1018.10 1017.88 1018.29 1018.70 1018.93 1019.06 1018.98 1018.88 1019.00 1019.11 1019.44 1019.80 1020.17 1020.54 1020.67 1020.74 1021.08
1016.07 1016.10 1016.32 1017.03 1016.63 1015.58 1015.03 1014.80 1014.63 1014.68 1014.47 1014.56 1014.68 1015.32 1015.94 1016.67 1017.45 1018.40 1018.97 1019.02 1019.10 1019.40 1019.44 1019.50 1019.30 1019.17 1019.18 1019.04 1019.21 1019.34 1019.59 1019.60 1019.90 1020.19 1020.39 1020.33 1020.11 1020.24 1020.25 1020.30 1020.95 1021.29 1021.51 1021.58
1015.79 1015.83 1016.48 1016.91 1016.30 1015.72 1015.25 1015.12 1015.25 1015.21 1014.96 1014.77 1014.94 1015.44 1016.04 1016.80 1017.66 1018.42 1019.19 1019.78 1019.79 1019.58 1019.81 1019.93 1019.97 1020.15 1019.95 1019.81 1019.77 1019.79 1020.09 1020.40 1020.63 1021.03 1021.20 1021.27 1021.16 1021.41 1021.29 1021.23 1021.41 1021.65 1021.91 1022.19
1015.65 1015.82 1016.42 1016.76 1016.35 1016.05 1015.42 1015.15 1015.34 1015.22 1015.07 1015.00 1015.13 1015.55 1016.13 1016.97 1017.82 1018.37 1019.10 1019.61 1020.14 1020.34 1020.43 1020.43 1020.54 1020.74 1020.69 1020.38 1020.22 1020.23 1020.19 1020.30 1020.69 1020.93 1021.31 1021.63 1021.63 1021.87 1022.17 1022.40 1022.28 1022.65 1022.88 1022.84
1015.15 1015.21 1015.71 1015.58 1014.99 1015.07 1014.82 1014.64 1015.16 1015.18 1015.27 1015.38 1015.27 1016.10 1016.76 1017.14 1017.76 1018.39 1019.08 1019.55 1019.86 1020.23 1020.62 1021.00 1021.05 1021.34 1021.50 1021.39 1021.11 1020.90 1020.69 1020.73 1020.96 1021.26 1021.49 1021.66 1022.05 1022.37 1022.54 1022.93 1022.98 1023.34 1023.40 1023.07
Thickness
5734 5716 5714 5741 5740 5739 5734 5726 5720 5728 5728 5724 5733 5742 5743 5751 5754 5753 5754 5761 5759 5760 5765 5763 5763 5764 5763 5761 5760 5762 5760 5759 5758 5756 5755 5752 5750 5752 5753 5753 5753 5753 5755 5755
5713 5710 5740 5745 5746 5744 5746 5734 5727 5715 5719 5721 5723 5728 5738 5746 5747 5757 5755 5757 5760 5755 5758 5760 5760 5762 5761 5760 5762 5762 5763 5759 5759 5759 5759 5759 5756 5754 5754 5755 5756 5754 5755 5758
5706 5732 5747 5740 5738 5738 5739 5735 5727 5732 5721 5723 5724 5717 5727 5736 5743 5754 5754 5759 5758 5756 5757 5757 5757 5759 5761 5760 5761 5765 5764 5765 5762 5762 5762 5759 5758 5755 5752 5753 5754 5754 5755 5755
5717 5735 5736 5732 5732 5735 5724 5751 5746 5730 5721 5707 5724 5705 5720 5731 5734 5749 5754 5753 5751 5757 5759 5759 5758 5757 5762 5762 5761 5764 5764 5766 5765 5765 5763 5760 5756 5750 5753 5755 5756 5755 5756 5756
5709 5725 5727 5726 5739 5747 5731 5745 5737 5729 5707 5712 5719 5709 5729 5735 5736 5747 5751 5754 5754 5760 5763 5761 5762 5765 5766 5765 5764 5764 5765 5764 5766 5764 5762 5759 5756 5757 5757 5756 5755 5755 5756 5757
5716 5741 5741 5742 5748 5751 5741 5724 5719 5712 5703 5696 5717 5714 5720 5720 5745 5749 5753 5759 5754 5754 5761 5762 5764 5764 5765 5767 5766 5764 5762 5762 5764 5765 5763 5761 5758 5757 5756 5755 5756 5755 5757 5758
5716 5733 5752 5756 5723 5731 5732 5710 5678 5683 5693 5691 5712 5708 5731 5755 5761 5769 5761 5757 5756 5755 5757 5761 5760 5761 5761 5764 5766 5764 5762 5760 5762 5763 5762 5760 5761 5760 5758 5757 5759 5758 5757 5757
5695 5704 5746 5756 5741 5723 5727 5723 5696 5681 5682 5704 5710 5704 5743 5768 5773 5779 5777 5769 5761 5754 5755 5762 5762 5764 5764 5766 5767 5766 5761 5761 5762 5763 5763 5762 5760 5757 5758 5761 5762 5762 5763 5764
5698 5710 5746 5761 5762 5749 5733 5714 5737 5699 5702 5691 5699 5731 5764 5774 5774 5783 5775 5769 5766 5767 5765 5767 5766 5766 5767 5767 5768 5768 5764 5763 5763 5762 5763 5762 5761 5761 5761 5763 5763 5765 5766 5767
5718 5705 5741 5750 5761 5751 5748 5745 5706 5680 5682 5690 5702 5724 5738 5756 5761 5768 5763 5771 5777 5778 5773 5769 5771 5768 5767 5770 5770 5770 5770 5768 5767 5765 5763 5763 5761 5760 5763 5763 5764 5765 5768 5769
5720 5708 5721 5739 5732 5733 5734 5729 5717 5713 5707 5700 5689 5709 5755 5758 5766 5760 5761 5764 5768 5772 5772 5775 5774 5775 5777 5771 5772 5773 5771 5769 5767 5765 5764 5763 5762 5762 5762 5763 5765 5766 5770 5770
5724 5701 5700 5722 5740 5744 5740 5727 5717 5699 5708 5704 5704 5718 5750 5753 5762 5764 5763 5765 5767 5773 5773 5773 5770 5771 5770 5773 5771 5773 5771 5771 5769 5767 5763 5763 5762 5763 5763 5762 5763 5765 5766 5770
5726 5698 5683 5700 5720 5730 5717 5727 5726 5706 5703 5700 5702 5713 5745 5752 5754 5758 5759 5765 5766 5772 5773 5770 5771 5770 5769 5769 5768 5769 5767 5766 5764 5765 5761 5760 5758 5759 5760 5763 5764 5764 5763 5766
5725 5695 5692 5676 5686 5693 5710 5720 5727 5716 5701 5706 5708 5724 5731 5735 5740 5744 5752 5759 5762 5767 5774 5773 5769 5768 5769 5770 5768 5766 5764 5764 5763 5763 5759 5758 5758 5756 5756 5759 5760 5760 5762 5762
5713 5692 5695 5696 5703 5703 5705 5710 5715 5712 5715 5717 5717 5719 5723 5721 5730 5739 5745 5754 5761 5760 5760 5763 5765 5765 5764 5764 5762 5761 5761 5760 5760 5754 5752 5749 5753 5755 5753 5755 5759 5760 5758 5758
5696 5686 5694 5685 5692 5703 5695 5705 5714 5716 5718 5712 5712 5709 5719 5722 5729 5730 5738 5743 5749 5750 5751 5755 5753 5750 5745 5742 5742 5749 5750 5750 5747 5745 5746 5744 5745 5748 5748 5750 5751 5754 5754 5753
5684 5679 5677 5678 5674 5691 5677 5686 5697 5703 5708 5710 5695 5701 5710 5708 5715 5720 5725 5732 5736 5740 5740 5745 5747 5744 5739 5733 5731 5734 5736 5740 5739 5740 5738 5739 5735 5738 5740 5744 5744 5743 5743 5744
5677 5671 5663 5667 5671 5652 5677 5689 5702 5698 5701 5704 5701 5705 5707 5706 5706 5706 5714 5719 5722 5724 5725 5731 5737 5738 5737 5730 5725 5726 5725 5729 5728 5731 5731 5733 5731 5731 5732 5733 5735 5737 5736 5732
5679 5663 5650 5654 5643 5662 5675 5684 5686 5689 5686 5697 5696 5699 5701 5699 5699 5697 5698 5700 5703 5707 5713 5716 5723 5724 5727 5727 5721 5720 5719 5716 5720 5721 5723 5725 5732 5725 5729 5727 5730 5732 5727 5723
5672 5666 5657 5644 5649 5641 5658 5681 5692 5693 5659 5690 5694 5689 5691 5691 5679 5680 5685 5687 5691 5695 5699 5704 5711 5713 5714 5713 5725 5703 5705 5710 5715 5715 5711 5717 5721 5718 5718 5717 5717 5716 5716 5714
5641 5641 5641 5635 5633 5644 5671 5676 5684 5660 5660 5690 5692 5688 5687 5680 5678 5678 5677 5675 5678 5680 5682 5685 5690 5696 5695 5694 5697 5700 5706 5704 5704 5707 5710 5711 5706 5705 5704 5701 5703 5704 5705 5703
5640 5631 5630 5626 5627 5637 5666 5671 5665 5662 5671 5678 5681 5681 5672 5672 5669 5666 5666 5667 5665 5667 5670 5672 5676 5678 5680 5685 5688 5687 5688 5690 5691 5694 5696 5697 5699 5696 5696 5694 5694 5696 5698 5696
5637 5640 5635 5634 5631 5647 5655 5657 5661 5657 5662 5665 5669 5666 5664 5661 5661 5656 5655 5658 5659 5656 5656 5658 5661 5665 5666 5670 5671 5672 5671 5676 5677 5675 5675 5678 5683 5685 5687 5688 5684 5683 5683 5686
5649 5646 5637 5637 5645 5648 5649 5648 5645 5644 5650 5654 5657 5657 5657 5654 5650 5647 5644 5641 5646 5651 5649 5649 5651 5652 5654 5655 5659 5660 5660 5659 5660 5659 5658 5660 5664 5665 5668 5671 5671 5672 5673 5673
5646 5646 5633 5631 5638 5638 5640 5638 5635 5636 5639 5643 5647 5649 5649 5646 5643 5642 5640 5637 5633 5633 5635 5636 5637 5638 5642 5647 5647 5649 5652 5654 5653 5652 5651 5649 5652 5652 5652 5652 5656 5655 5654 5656
5648 5642 5633 5629 5644 5639 5638 5637 5628 5630 5627 5629 5636 5635 5637 5639 5636 5635 5632 5631 5630 5629 5627 5626 5626 5623 5621 5625 5631 5634 5637 5640 5639 5638 5640 5640 5638 5637 5636 5636 5640 5637 5638 5642